Regional Weather Roundup
Issued by NWS Northern Indiana

Home | Current Version | Previous Version | Text Only | Print | Product List | Glossary Off
Versions: 1 2 3 4 5 6 7 8 9 10 11 12 13 14 15 16 17 18 19 20 21 22 23 24 25 26 27 28 29 30 31 32 33 34 35 36 37 38 39 40 41 42 43 44 45 46 47 48 49 50

000
ASUS43 KIWX 271800
RWRIWX

KIWX WEATHER ROUNDUP
NATIONAL WEATHER SERVICE NORTHERN INDIANA
200 PM EDT MON MAR 27 2017

NOTE: "FAIR" INDICATES FEW OR NO CLOUDS BELOW 12,000 FEET WITH NO
SIGNIFICANT WEATHER AND/OR OBSTRUCTIONS TO VISIBILITY.

* THESE STATIONS ARE NOT UNDER NWS QUALITY CONTROL. THEY ALSO MAY NOT
  REPORT WEATHER SUCH AS PRECIPITATION OR FOG.

INZ001>027-271900-
NORTHERN INDIANA

CITY           SKY/WX    TMP DP  RH WIND       PRES   REMARKS
GARY*          CLOUDY    46  43  87 NE7       29.96S FOG
SOUTH BEND     NOT AVBL
ELKHART*       CLOUDY    55  48  76 SW6       29.93F
GOSHEN         CLOUDY    56  48  74 S10       29.94S
6HR MIN TEMP:  50; 6HR MAX TEMP:  57;

MONTICELLO*    CLOUDY    56  51  82 S3        29.93F
6HR MIN TEMP:  49; 6HR MAX TEMP:  56;

ANGOLA*        CLOUDY    55  46  71 SW3       29.93S
FORT WAYNE     NOT AVBL

$$
INZ028>050-271900-
CENTRAL INDIANA

CITY           SKY/WX    TMP DP  RH WIND       PRES   REMARKS
MUNCIE*        CLOUDY    63  50  62 SW7G17    29.94F
6HR MIN TEMP:  52; 6HR MAX TEMP:  64;

INDIANAPOLIS   NOT AVBL

$$
MIZ043>046-050>051-056>058-064>065-071>073-077>080-271900-
SOUTHWEST LOWER MICHIGAN

CITY           SKY/WX    TMP DP  RH WIND       PRES   REMARKS
BATTLE CREEK   CLOUDY    53  49  86 W9        29.93F
6HR MIN TEMP:  49; 6HR MAX TEMP:  53;

BENTON HARBOR  CLOUDY    50  45  83 SW6       29.95F
6HR MIN TEMP:  42; 6HR MAX TEMP:  51;

HOLLAND        CLOUDY    47  41  80 W5        29.95F
6HR MIN TEMP:  41; 6HR MAX TEMP:  47;

GRAND RAPIDS   CLOUDY    49  43  80 W8        29.92F
6HR MIN TEMP:  42; 6HR MAX TEMP:  50;

KALAMAZOO      CLOUDY    52  47  83 SW3       29.93F
6HR MIN TEMP:  48; 6HR MAX TEMP:  53;


$$
OHZ001>008-015>018-024>025-271900-
NORTHWEST OHIO

CITY           SKY/WX    TMP DP  RH WIND       PRES   REMARKS
DEFIANCE       CLOUDY    57  48  72 VRB5      29.94F
6HR MIN TEMP:  51; 6HR MAX TEMP:  57;

FINDLAY        CLOUDY    59  48  67 W8        29.94F
6HR MIN TEMP:  52; 6HR MAX TEMP:  60; 6HR PCP: TRACE;

TOLEDO EXPRESS CLOUDY    58  49  72 W7        29.93F
6HR MIN TEMP:  50; 6HR MAX TEMP:  59;

TOLEDO METCALF CLOUDY    58  50  75 SW7       29.94F
6HR MIN TEMP:  52; 6HR MAX TEMP:  59;

LIMA           PTSUNNY   59  50  72 SW6       29.95F
6HR MIN TEMP:  51; 6HR MAX TEMP:  60;


$$
AND FOR LAKE MICHIGAN COASTAL AND OPEN LAKE BUOY OBSERVATIONS

STATION/POSITION TEMP    WIND        PRES    VSBY  WAVE
                 AIR SEA DIR/SP/G                  HT/PER
                 (F)     (DEG/KT/KT) (MB)    (MI)  (FT/S)
CALUMET HARBOR    40      60/  6/  7 1013.8F
MICHIGAN CITY     40      40/  7/  7   N/A
BURNS HARBOR      41      60/  7/  8 1014.6F

$$
&&




USA.gov is the U.S. government's official web portal to all federal, state and local government web resources and services.